HS9UAC-10 Weather Reports


Display with metric or nautical units.
time (UTC)temp
F
wind
direction
speed
MPH
gust
MPH
rain 1hr
in
rain 24hr
in
rain mn
in
humidity
%
barometer
mb
20260506112944 97 0 0.0 0.0 0.00 0.00 0.00 67 1005.0
20260506111958 97 0 0.0 0.0 0.00 0.00 0.00 67 1004.0
20260506111543 97 0 0.0 0.0 0.00 0.00 0.00 66 1004.0
20260506110018 98 0 0.0 0.0 0.00 0.00 0.00 61 1004.0
20260506104454 100 0 0.0 0.0 0.00 0.00 0.00 57 1004.0
20260506102929 102 0 0.0 0.0 0.00 0.00 0.00 52 1004.0
20260506101404 102 0 0.0 0.0 0.00 0.00 0.00 53 1004.0
20260506095840 104 0 0.0 0.0 0.00 0.00 0.00 50 1004.0
20260506094315 106 0 0.0 0.0 0.00 0.00 0.00 48 1004.0
20260506092751 109 0 0.0 0.0 0.00 0.00 0.00 45 1004.0
20260506091226 113 0 0.0 0.0 0.00 0.00 0.00 40 1004.0
20260506085701 110 0 0.0 0.0 0.00 0.00 0.00 42 1004.0
20260506084137 111 0 0.0 0.0 0.00 0.00 0.00 41 1004.0
20260506082612 111 0 0.0 0.0 0.00 0.00 0.00 42 1004.0
20260506081047 110 0 0.0 0.0 0.00 0.00 0.00 42 1004.0
20260506072433 103 0 0.0 0.0 0.00 0.00 0.00 54 1005.0
20260506070908 102 0 0.0 0.0 0.00 0.00 0.00 56 1005.0
20260506062254 102 0 0.0 0.0 0.00 0.00 0.00 53 1006.0
20260506060730 104 0 0.0 0.0 0.00 0.00 0.00 50 1006.0
20260506050552 102 0 0.0 0.0 0.00 0.00 0.00 56 1007.0
20260506045027 100 0 0.0 0.0 0.00 0.00 0.00 64 1007.0
20260506043502 102 0 0.0 0.0 0.00 0.00 0.00 61 1008.0
20260506041938 99 0 0.0 0.0 0.00 0.00 0.00 63 1008.0
20260506040413 100 0 0.0 0.0 0.00 0.00 0.00 65 1008.0
20260506034849 99 0 0.0 0.0 0.00 0.00 0.00 68 1008.0
20260506033324 99 0 0.0 0.0 0.00 0.00 0.00 69 1008.0
20260506031759 97 0 0.0 0.0 0.00 0.00 0.00 73 1008.0
20260506030235 97 0 0.0 0.0 0.00 0.00 0.00 72 1008.0
20260506024710 97 0 0.0 0.0 0.00 0.00 0.00 72 1008.0
20260506023145 95 0 0.0 0.0 0.00 0.00 0.00 77 1008.0
20260506021621 95 0 0.0 0.0 0.00 0.00 0.00 77 1008.0
20260506020056 98 0 0.0 0.0 0.00 0.00 0.00 70 1008.0
20260506014532 99 0 0.0 0.0 0.00 0.00 0.00 70 1008.0
20260506013007 98 0 0.0 0.0 0.00 0.00 0.00 73 1008.0
20260506011443 98 0 0.0 0.0 0.00 0.00 0.00 75 1008.0
20260506005918 97 0 0.0 0.0 0.00 0.00 0.00 79 1007.0
20260506004354 95 0 0.0 0.0 0.00 0.00 0.00 84 1007.0
20260506002829 94 0 0.0 0.0 0.00 0.00 0.00 88 1007.0
20260506001305 93 0 0.0 0.0 0.00 0.00 0.00 91 1007.0
20260505235740 92 0 0.0 0.0 0.00 0.00 0.00 92 1007.0
20260505234215 91 0 0.0 0.0 0.00 0.00 0.00 93 1007.0
20260505232650 91 0 0.0 0.0 0.00 0.00 0.00 93 1007.0
20260505232027 92 0 0.0 0.0 0.00 0.00 0.00 92 1007.0
20260505230503 91 0 0.0 0.0 0.00 0.00 0.00 91 1006.0
20260505224937 92 0 0.0 0.0 0.00 0.00 0.00 89 1006.0
20260505223413 93 0 0.0 0.0 0.00 0.00 0.00 86 1006.0
20260505221848 92 0 0.0 0.0 0.00 0.00 0.00 83 1006.0
20260505220324 93 0 0.0 0.0 0.00 0.00 0.00 79 1006.0
20260505214759 92 0 0.0 0.0 0.00 0.00 0.00 81 1006.0
20260505213235 93 0 0.0 0.0 0.00 0.00 0.00 79 1006.0
20260505211710 93 0 0.0 0.0 0.00 0.00 0.00 79 1006.0
20260505210146 94 0 0.0 0.0 0.00 0.00 0.00 76 1006.0
20260505204621 94 0 0.0 0.0 0.00 0.00 0.00 75 1006.0
20260505203057 94 0 0.0 0.0 0.00 0.00 0.00 74 1006.0
20260505201532 94 0 0.0 0.0 0.00 0.00 0.00 73 1006.0
20260505200008 94 0 0.0 0.0 0.00 0.00 0.00 73 1006.0
20260505194443 94 0 0.0 0.0 0.00 0.00 0.00 72 1006.0
20260505192918 94 0 0.0 0.0 0.00 0.00 0.00 73 1006.0
20260505191353 94 0 0.0 0.0 0.00 0.00 0.00 73 1006.0